map of TOE home
TOE - Airport
Location
City:  Tozeur, Tunisia
Name:Nefta International Airport
ICAO:DTTZ
IATA:TOE

Details
Type:Airport (Aerodrome, Airfield)
Use:Public/Civil, International (customs port of entry)
Latitude:3356'23"N (33.939722)
Longitude:806'38"E (8.110556)
Elevation:287 ft (87 m)
Variation:1.95E (WMM2015 magnetic declination)
0.09 annual change
Runways:1
Longest:10581 × 148 ft (3225 × 45 m), paved

Time
Time Zone:UTC+1 (DST+2)

Weather
METAR:DTTZ 190300Z 06008KT 9999 FEW033 27/19 Q1015 NOSIG
TAF:DTTZ 182300Z 1900/1924 10017KT 9999 FEW033
BECMG 1910/1912 12005KT PROB30
TEMPO 1914/1921 VRB17G27KT 4000 TS RA FEW030CB
BECMG 1921/1923 06012KT

Related Locations
Nearby:
Farthest:GIS: 11788 mi / 18971 km
Gisborne, GIS, NZ

Find:

   beyond  
but within

Other Information
Maps:
NOTAMs:
Links:
Sources:

  
  • flag of Tunisia
  

Sectional Chart

Flight Planning
at skyvector.com

Satellite Image

Google Maps Satellite view

 

Copyright © 2004-2018 Karl L. Swartz. All rights reserved.
The Great Circle Mapper name and logo are trademarks of the Great Circle Mapper.
All other trademarks mentioned herein belong to their respective owners.
Please see credits for attibutions and further copyright information.

  Follow gcmap on Facebook Follow gcmap on Twitter Follow gcmap on Google+ GCmap on LinkedIn

hCard Microformat

Geo Microformat